Retour au catalogue

COSMOS 1275 DEB

ActifPO
NORAD 13812·DEBRIS·🇷🇺 Russia

Lancé Jun 4, 1981 depuis Plesetsk Cosmodrome

Loading…

Prochains Passages (prochaines 24 heures)

TLE

FraisSource: Space-Track

Époque: Sep 14, 2026, 02:26 UTC

1 13812U 81053HG  26257.10205116  .00002968  00000-0  93485-3 0  9997
2 13812  83.2450 296.3757 0032288  46.4933 343.2365 14.39814528238600

Suivez COSMOS 1275 DEB en temps réel avec AllMySat

Download on the App Store